COSMOS 2550

基本信息
目录编号:
48865
目录名称:
COSMOS 2550
国际标识:
2021-056A
轨道中心:
EARTH
卫星名称:
COSMOS 2550
卫星全名:
--
卫星状态:
在轨 (已飞行1712 天)
发射日期:
2021-06-25 UTC
国别 :
俄罗斯(独联体) (CIS)
星等 :
--
轨道信息
数据来源 国际轨道数据 AOE轨道数据
星历时间 2026-03-03T17:18:28+0800
4小时前
查看轨道信息
2026-02-26T22:00:00+0800
5天前
查看轨道信息
半长轴 6842.502km 6842.518km
偏心率 0.0008336 0.0008264
轨道倾角 67.142° 67.142°
近地点辐角 269.409° 270.426°
升交点赤经 59.994° 74.526°
平近点角 90.611° 204.855°
近地点 458.661km 458.726km
远地点 470.069km 470.036km
周期 93.882分钟 93.882分钟
每日圈数 15.338411 15.338358
详细信息
使用方式:
暂无
2D轨道图
3D轨道图
轨道高度分析图
轨道倾角分析图
轨道综合分析图
查看轨道综合分析图